Wind_Speed
36 33 31 30 28 25 24 24 23 23 23 24 26 26 26 26 27 27 27 27 28 28 28 28 29 29 29 28 27 26 26 25 25 25 24 23 21 20 19 19 19 20 20 20 22 26 30 32 33 33 35 36 40 43 44 45 44 42 39 38 40 42 43
38 35 33 32 29 26 26 27 27 27 28 30 32 34 34 33 32 30 28 27 26 26 26 26 26 26 27 27 26 25 24 24 24 24 23 21 20 18 17 18 18 19 20 20 21 21 23 25 27 31 35 38 41 43 45 48 49 49 46 43 40 39 41
39 38 36 34 31 28 28 30 30 30 32 35 37 39 39 38 36 33 31 29 27 26 24 23 23 23 24 24 23 22 22 23 23 22 21 20 17 16 16 16 16 17 19 20 20 20 19 20 25 30 35 38 41 43 44 47 48 49 50 49 47 44 43
40 39 38 37 36 35 36 36 36 36 37 38 40 40 40 38 36 34 32 31 29 27 24 23 22 22 22 22 20 19 20 21 21 21 20 19 17 16 16 16 17 17 18 19 20 21 21 21 25 30 33 36 39 41 43 46 48 49 49 49 49 47 48
40 39 39 40 41 42 43 42 41 41 40 40 40 39 38 36 35 34 33 32 30 28 26 25 24 24 24 23 20 18 19 20 20 21 21 20 20 19 18 18 19 20 20 19 19 20 21 22 24 26 29 31 34 37 39 42 45 48 49 49 49 48 48
41 40 39 40 42 43 43 41 40 40 39 38 38 38 38 37 36 35 34 33 32 31 30 29 29 28 27 26 24 22 21 21 21 22 23 23 24 23 23 22 22 23 23 21 20 20 21 22 24 25 27 28 29 32 35 38 40 43 45 48 50 51 50
43 42 42 42 43 44 44 43 42 42 42 42 42 41 41 40 39 37 36 35 35 35 35 35 34 33 32 30 29 27 26 25 25 25 26 26 27 28 28 27 25 24 24 23 22 21 21 22 23 25 26 27 28 29 32 35 37 39 41 42 46 50 51
45 46 46 46 47 47 47 47 47 47 48 48 47 46 45 43 41 39 38 38 38 38 39 39 38 37 36 35 33 32 31 30 30 30 31 31 31 31 31 30 28 27 26 26 25 24 24 24 24 25 26 27 28 29 30 32 33 35 37 38 40 44 49
46 47 49 49 49 50 50 50 50 50 50 51 50 49 47 45 43 42 41 41 41 41 41 40 40 39 39 38 37 36 35 34 34 35 35 36 36 36 35 34 34 33 31 29 29 29 28 28 27 27 27 27 28 30 31 32 32 33 34 35 36 38 43
45 46 47 47 48 48 48 49 49 49 50 50 50 49 48 47 46 45 44 44 43 43 42 41 41 40 39 39 39 39 38 38 38 38 38 38 39 39 39 38 38 37 35 32 32 32 32 32 31 31 31 30 30 31 32 33 34 34 34 34 35 36 38
45 46 45 45 45 45 46 46 46 46 47 48 49 49 49 48 48 47 46 46 45 45 44 43 43 42 42 41 40 40 41 41 41 41 41 41 41 41 41 40 39 38 37 36 35 35 35 35 35 35 35 35 35 34 34 34 35 36 37 36 36 37 37
47 48 48 48 46 46 47 47 47 47 48 49 49 50 50 50 49 49 48 47 46 46 46 46 46 45 44 44 43 43 43 44 44 43 43 43 43 43 43 41 40 39 39 39 39 39 39 39 39 39 40 40 40 40 39 38 37 38 38 39 39 38 39
50 51 52 52 51 50 50 50 51 51 51 51 51 51 50 49 48 48 48 48 47 47 47 47 47 47 47 47 47 47 47 47 46 46 45 45 44 44 43 43 42 41 41 42 42 42 42 43 43 43 44 44 44 44 43 43 42 41 41 41 41 41 41
54 53 54 54 55 54 54 54 53 52 51 51 51 52 52 51 51 52 53 53 52 51 49 49 49 50 50 51 51 51 51 50 49 48 47 47 46 46 45 45 45 44 44 44 45 45 45 46 47 47 48 48 47 47 46 46 46 44 43 43 43 43 43
58 57 56 56 56 56 55 55 54 52 52 52 52 54 56 58 60 61 62 61 60 58 57 55 54 54 55 55 56 56 55 55 54 52 51 50 50 49 48 48 48 48 48 48 49 49 49 50 51 51 51 50 49 49 49 49 49 47 46 46 45 44 43
62 61 60 59 58 58 57 57 56 55 54 53 54 57 59 62 63 64 64 64 63 62 61 60 59 58 57 57 57 57 57 57 57 56 56 55 55 54 53 52 52 51 51 52 52 53 53 53 53 52 52 50 50 50 50 50 50 50 49 48 48 47 46
64 64 63 61 59 59 59 58 58 58 57 57 59 61 62 63 64 64 64 64 64 62 61 60 59 58 58 57 57 57 58 58 58 58 58 58 57 57 57 56 55 55 54 53 53 53 52 52 51 51 50 49 49 49 49 49 50 50 50 50 50 49 48
66 65 64 62 61 61 60 60 61 61 61 62 64 65 65 65 65 65 65 64 63 62 62 61 60 60 60 59 59 58 58 58 57 57 56 56 56 56 56 56 56 55 54 52 51 51 50 50 49 48 47 46 46 45 46 47 48 49 50 51 51 51 51
68 65 63 63 63 63 63 62 62 62 64 67 68 68 68 68 68 67 67 66 65 65 65 65 64 63 62 61 59 58 57 56 55 54 54 53 53 53 53 54 54 53 51 50 49 48 48 47 46 46 45 44 43 43 43 43 43 45 46 49 51 52 53
71 68 66 66 66 65 65 65 65 67 70 71 71 70 71 71 70 70 69 68 67 67 67 67 66 65 62 60 58 56 55 54 53 52 52 51 51 51 51 50 49 48 47 47 46 46 46 46 46 45 44 44 44 44 44 42 41 42 44 47 50 52 54
76 75 73 71 70 69 70 71 71 72 73 73 72 71 72 72 72 71 70 69 68 67 67 66 65 63 61 58 56 54 53 52 51 51 50 49 49 49 48 47 47 46 46 46 46 47 47 46 45 45 45 45 45 45 45 44 43 44 45 47 49 52 54
79 79 78 75 74 75 76 77 78 77 77 76 74 74 75 75 75 74 72 70 69 67 66 64 62 61 59 58 56 54 53 51 50 50 49 48 48 48 48 48 48 48 48 48 48 48 47 46 45 46 46 47 47 47 47 46 45 44 45 46 47 49 52
81 81 80 77 77 78 79 80 80 79 80 80 79 79 80 79 77 76 74 72 70 68 65 63 62 61 59 58 57 55 53 52 52 52 52 51 52 52 52 52 51 51 51 51 51 51 49 47 46 47 48 49 49 49 49 48 46 45 46 47 47 48 50
82 82 81 79 79 79 80 81 81 81 82 84 82 79 78 77 76 76 74 72 69 66 64 63 62 62 61 60 58 57 56 54 54 54 54 54 55 56 57 57 56 54 54 54 54 54 53 51 50 49 49 50 51 51 51 49 48 47 47 47 47 49 50
84 84 83 83 83 83 83 84 84 84 84 84 83 80 79 79 79 78 75 73 70 68 66 65 64 64 63 62 62 61 60 59 58 58 58 58 58 58 59 60 60 58 57 57 57 57 57 56 55 54 53 53 53 52 52 50 49 48 47 47 47 49 51
85 85 85 86 86 86 86 86 86 86 86 86 85 84 84 83 82 80 78 76 74 72 70 68 66 65 65 64 64 64 64 64 64 64 64 64 63 63 62 62 62 62 61 61 61 61 60 59 59 58 58 57 56 56 56 54 53 52 51 49 49 50 52
88 89 89 89 90 89 89 88 88 88 89 89 89 89 89 87 84 82 80 78 76 74 72 70 68 66 65 65 66 67 67 67 68 68 68 68 67 67 66 65 64 64 64 64 65 65 64 63 62 62 61 60 60 59 59 59 59 59 58 57 56 54 54
89 90 90 91 91 92 91 91 92 92 92 92 92 91 91 89 86 83 80 78 76 74 73 72 71 70 69 68 68 69 69 70 70 71 71 70 70 69 68 67 67 66 67 68 69 69 68 67 66 65 65 64 63 62 62 63 63 63 63 63 62 61 59
89 90 91 91 92 92 93 93 93 93 93 92 91 90 89 87 85 83 81 79 77 76 75 74 73 73 72 72 72 72 72 73 73 73 72 72 71 71 70 70 70 70 70 71 71 71 71 71 70 69 68 68 67 66 66 66 66 66 66 65 65 64 63
89 90 90 90 91 91 91 91 91 90 89 89 87 86 85 84 83 82 80 79 78 76 76 75 75 75 75 75 75 75 75 75 75 75 74 74 73 73 73 73 73 72 72 73 73 73 73 73 72 72 71 71 70 69 69 68 68 67 66 66 65 65 64
83 83 84 84 84 84 84 84 84 83 83 82 81 80 79 79 78 78 78 77 76 76 75 75 75 75 75 76 76 76 77 77 77 77 77 76 76 75 75 75 75 75 74 74 74 75 75 75 74 73 73 72 71 70 69 68 66 65 64 63 63 63 63
76 76 76 76 77 77 78 78 78 78 78 77 76 75 75 74 74 73 73 73 73 73 73 74 74 75 75 75 76 76 76 76 76 77 76 76 76 76 76 76 76 75 75 75 75 75 75 74 73 72 71 69 68 67 65 64 62 61 61 60 60 61 61
74 74 74 74 74 75 76 76 76 76 76 75 73 72 72 72 71 70 70 70 70 70 71 71 72 73 73 74 74 75 75 74 74 75 75 74 74 74 74 74 74 73 73 73 73 72 72 71 70 68 66 65 63 63 62 61 60 59 58 58 59 59 60
76 75 75 75 75 76 76 77 77 77 77 77 75 73 72 71 70 69 69 69 69 69 70 70 71 71 71 71 72 73 73 72 72 72 72 71 71 70 70 70 70 69 69 69 68 68 67 66 66 65 64 62 61 61 60 60 59 59 59 59 59 59 59
78 78 78 78 78 78 78 79 79 80 80 80 78 76 75 73 71 70 70 70 69 69 70 70 70 70 70 70 70 71 71 71 70 70 69 68 68 67 66 66 66 66 66 66 65 64 64 64 64 64 64 63 62 61 61 60 60 60 60 60 60 60 60
81 82 82 82 82 81 81 81 82 82 82 82 82 80 78 77 75 73 72 72 71 71 71 71 70 70 70 70 70 70 70 70 69 69 69 68 67 66 65 65 65 65 65 65 64 64 63 63 64 64 64 64 64 63 63 62 62 63 63 63 63 63 63
84 85 85 86 85 85 85 84 84 84 84 84 84 82 81 80 78 77 75 74 74 73 73 73 72 72 71 71 71 71 71 70 70 70 69 69 68 67 67 66 66 66 66 65 65 65 64 64 65 65 65 66 66 66 66 65 66 66 66 66 66 66 66
Wind_Direction
271 275 274 273 275 275 275 275 275 277 282 286 290 292 294 296 298 297 295 294 293 292 291 289 287 286 284 282 281 281 280 279 277 276 276 277 278 275 270 265 260 257 253 249 243 241 243 243 242 244 244 242 238 235 233 233 233 232 235 238 239 240 241
264 267 269 267 268 271 272 272 274 277 282 286 290 292 292 294 296 298 300 301 301 299 295 290 287 286 284 282 281 280 280 279 277 276 277 279 280 280 277 273 268 263 259 256 251 248 245 241 241 246 246 243 241 239 238 238 238 236 236 239 241 241 241
264 263 264 263 263 268 271 273 276 278 281 284 288 291 292 293 295 297 300 302 302 302 298 293 291 289 285 282 279 280 281 279 277 276 278 280 283 284 284 283 280 274 268 263 259 257 251 236 233 240 244 244 243 242 241 240 241 240 238 239 242 244 244
267 263 260 260 261 266 271 274 277 278 279 282 285 288 290 292 295 297 299 299 299 299 298 296 294 292 288 283 279 279 280 278 274 273 275 278 281 284 286 288 288 285 279 272 266 261 257 248 242 244 248 249 247 246 244 242 242 242 241 240 241 244 246
268 265 260 259 260 265 270 274 276 277 279 281 284 286 289 291 294 296 297 296 295 294 293 292 292 291 289 287 284 279 277 273 269 268 270 274 277 280 284 288 291 290 285 279 274 268 264 260 256 255 255 254 253 251 249 246 244 244 243 242 241 244 247
268 267 263 262 264 267 270 274 276 278 280 282 284 286 288 290 291 292 293 292 291 291 290 290 290 290 289 289 287 282 276 271 267 266 268 271 276 278 280 285 290 290 286 281 277 274 271 268 266 264 262 261 258 256 254 252 250 248 246 245 243 243 244
268 267 266 266 268 269 270 272 276 279 281 282 284 285 287 288 289 290 289 289 289 289 290 291 291 291 290 289 287 284 279 275 272 270 271 274 278 280 280 282 286 287 285 281 280 280 279 277 274 271 270 268 265 261 258 255 254 253 251 249 246 242 240
269 269 269 269 270 270 272 274 276 279 281 283 284 285 286 287 287 288 288 288 288 289 290 291 292 292 291 289 286 284 281 279 277 276 277 279 281 283 282 281 282 284 283 280 279 282 284 283 280 276 274 273 271 268 264 261 258 256 254 252 250 245 238
267 267 268 270 271 271 273 275 276 279 281 283 284 285 285 286 287 288 288 288 288 289 290 291 291 291 290 288 285 283 281 280 280 279 280 281 283 284 284 283 282 282 282 279 277 278 281 283 282 280 278 276 273 271 269 267 264 261 258 254 251 248 241
265 265 266 269 271 273 275 277 279 281 283 284 285 286 287 288 288 288 288 288 288 289 289 289 289 289 288 286 283 280 279 279 279 279 279 280 281 282 282 283 283 283 282 280 278 277 278 279 279 279 279 278 276 274 271 268 266 264 262 258 253 250 246
263 265 268 270 272 274 277 278 280 281 282 283 284 286 287 288 288 288 288 288 288 288 288 288 288 288 288 286 283 280 278 277 277 277 277 278 278 278 279 279 280 282 282 282 281 280 280 280 280 279 278 278 277 276 273 270 267 263 261 260 257 253 249
258 261 265 268 269 271 273 275 277 279 279 279 280 281 283 284 285 285 286 286 287 287 287 287 287 287 287 287 285 283 282 280 278 278 278 278 277 277 276 276 277 278 279 280 280 281 281 281 281 280 279 278 277 276 274 271 269 265 262 259 258 256 253
257 260 263 265 266 268 270 272 274 276 276 276 276 276 277 279 280 282 283 285 286 286 286 286 286 286 286 286 285 284 284 283 282 280 279 278 278 277 277 276 276 276 276 276 277 278 279 280 280 279 278 277 276 275 273 271 269 267 263 259 256 255 254
258 261 263 265 265 266 267 269 271 273 273 272 272 271 272 274 277 279 281 282 283 282 281 281 282 283 284 284 284 284 283 283 282 280 279 278 277 277 277 276 277 277 277 276 276 276 276 277 277 277 276 275 274 273 271 269 267 266 263 259 256 255 254
258 259 261 263 264 264 265 266 267 268 269 270 270 270 271 274 276 278 279 279 280 279 279 278 278 278 280 281 280 280 279 279 278 278 277 276 276 275 274 274 275 276 276 275 275 274 275 275 274 274 273 272 271 269 268 266 264 262 260 257 255 255 255
258 259 260 261 261 261 262 263 264 265 266 268 271 273 274 275 277 278 279 279 279 280 280 279 278 278 279 280 279 278 276 276 275 274 274 274 274 274 273 272 273 273 273 273 272 272 272 272 272 271 270 269 268 267 266 264 262 260 258 255 253 254 255
257 258 259 260 261 261 261 263 264 265 266 268 273 277 279 279 280 281 282 282 282 282 282 281 280 280 281 281 280 279 277 276 275 274 273 273 273 273 272 271 271 271 271 271 271 271 271 271 270 270 269 269 269 267 265 263 261 259 257 255 253 254 255
256 257 258 260 262 262 262 264 266 267 268 271 276 280 281 282 283 283 284 284 284 283 283 282 282 282 283 283 281 280 278 277 276 275 274 274 273 272 271 271 271 271 271 271 270 270 270 270 269 269 269 269 267 266 265 264 261 258 255 255 255 255 256
256 256 257 259 262 263 264 265 267 269 271 275 279 281 281 282 283 283 283 283 283 283 283 283 284 284 284 283 282 280 279 277 276 275 274 273 273 272 271 271 271 272 271 271 271 270 270 269 268 267 266 264 262 262 263 263 260 257 255 255 255 255 256
258 257 256 258 261 263 264 264 267 271 274 278 280 281 282 282 282 282 283 283 283 283 284 284 285 285 284 283 282 281 279 277 276 275 274 273 273 272 272 272 271 271 271 270 269 268 267 266 266 266 264 261 259 260 262 261 258 256 255 255 255 255 255
260 260 259 260 261 263 264 266 269 272 275 278 281 282 282 282 282 282 283 283 283 284 284 285 285 284 284 282 281 280 278 277 276 275 274 273 272 271 271 269 269 269 269 269 268 267 266 266 266 265 264 262 260 260 261 261 260 259 258 257 257 256 256
262 262 262 263 263 264 265 267 269 271 273 277 280 281 280 280 281 282 282 283 284 284 285 285 284 284 283 282 280 279 277 276 275 274 273 273 271 270 269 268 268 269 269 269 269 268 268 268 268 266 265 263 262 261 261 262 262 262 262 260 258 257 257
262 263 264 264 265 265 266 267 269 270 271 274 277 279 279 279 280 281 282 282 283 284 284 283 283 282 281 280 279 278 276 275 274 274 274 273 272 272 271 270 271 272 272 272 272 271 270 269 268 266 265 265 264 263 263 263 264 264 264 263 261 259 258
262 263 263 263 264 265 266 267 268 269 270 273 275 276 276 277 279 280 281 281 282 282 281 281 280 280 279 278 277 275 274 272 272 272 273 273 274 274 274 274 275 275 275 275 276 276 276 274 272 269 267 267 266 266 265 265 264 263 263 263 263 262 260
262 263 263 263 263 265 266 267 268 269 271 272 274 274 274 275 277 278 279 279 279 278 278 278 278 277 277 276 274 273 271 269 268 268 269 270 270 271 273 275 276 277 277 276 276 277 278 278 277 276 274 273 273 273 272 271 267 265 265 264 264 263 262
261 262 262 263 264 265 266 268 269 269 270 271 272 273 273 274 275 276 277 277 276 276 275 275 275 274 274 273 272 271 270 268 268 268 268 268 269 269 270 271 274 276 277 277 277 277 277 277 278 278 278 278 278 278 279 278 277 275 274 272 270 268 265
259 260 261 262 263 264 265 267 268 269 270 271 272 273 274 274 275 275 275 275 275 274 273 273 272 271 270 270 269 269 269 268 268 268 268 269 270 270 271 271 272 273 274 275 276 277 277 277 276 277 277 277 278 278 279 280 280 280 280 279 277 275 272
259 260 261 262 263 264 265 266 267 269 270 272 273 274 274 275 275 275 274 274 273 272 272 271 270 269 267 266 266 266 266 266 267 268 268 269 270 271 271 270 270 270 271 273 274 275 275 275 275 276 276 277 277 278 278 279 279 280 280 280 280 278 277
261 261 262 263 264 265 266 267 268 269 269 270 271 272 273 274 274 274 274 273 272 271 271 270 269 269 268 267 266 265 265 265 266 267 267 268 269 270 270 269 269 268 269 270 271 272 273 273 274 274 275 276 277 277 278 278 279 279 279 279 279 279 278
261 262 262 263 264 265 265 266 267 267 268 269 269 270 271 271 272 272 272 272 271 271 270 270 270 269 269 268 267 267 267 267 267 267 267 267 268 268 269 269 269 269 269 269 270 270 271 272 272 273 274 275 276 277 277 277 278 278 278 277 277 277 276
261 262 262 263 264 264 265 265 266 267 267 267 268 268 269 269 270 270 270 270 271 270 270 270 269 269 269 269 268 268 268 268 268 268 268 268 268 269 269 269 269 270 270 270 270 270 271 271 272 272 273 274 274 275 276 276 276 276 276 275 275 274 273
261 262 263 263 264 264 265 265 266 266 266 267 267 268 268 269 269 269 270 270 270 270 270 270 269 269 269 269 269 269 269 269 269 269 269 269 270 270 270 270 270 271 271 271 271 271 272 272 272 273 273 274 275 275 276 276 276 275 275 274 274 273 272
262 262 263 263 263 264 265 265 265 266 266 266 266 267 267 268 268 269 269 269 270 270 269 269 269 269 269 269 269 269 270 270 270 270 270 270 271 271 271 271 271 271 271 271 272 272 273 274 274 275 275 276 276 276 276 276 276 275 274 274 273 272 272
263 263 263 263 264 264 265 265 266 266 266 266 266 265 265 265 266 267 267 268 268 268 268 268 268 268 268 269 269 269 270 270 270 270 270 271 271 271 271 271 271 272 272 272 273 273 274 275 276 277 277 277 277 276 276 276 276 275 274 274 273 273 272
266 266 266 265 265 265 265 265 266 266 266 266 266 265 265 264 264 264 264 265 265 265 266 266 266 266 267 267 267 268 269 269 270 270 270 270 271 271 271 271 271 272 272 273 273 274 275 276 276 277 277 277 277 277 277 277 276 276 276 276 275 275 275
268 268 268 267 267 266 266 266 266 266 266 266 266 266 265 264 263 262 262 262 262 262 263 263 264 264 265 265 266 267 267 268 268 269 269 270 270 271 271 271 272 272 272 273 273 274 275 275 275 276 276 277 277 277 277 277 277 277 277 278 278 278 278
266 266 266 267 267 267 267 266 266 266 266 266 266 266 266 265 264 263 262 261 260 260 260 260 261 262 263 264 265 265 266 267 267 268 269 270 270 270 271 271 271 271 271 272 272 273 273 273 274 274 275 275 276 277 277 278 278 278 278 279 279 280 280
Height
10629 10630 10631 10631 10632 10632 10632 10632 10632 10633 10635 10636 10637 10637 10638 10638 10638 10638 10637 10637 10636 10636 10635 10635 10634 10634 10633 10633 10633 10633 10634 10634 10633 10632 10632 10632 10632 10632 10633 10633 10634 10634 10635 10636 10637 10638 10638 10638 10640 10640 10641 10642 10642 10643 10644 10643 10644 10645 10646 10647 10647 10648 10649
10625 10626 10626 10627 10627 10627 10627 10627 10627 10629 10630 10631 10632 10633 10633 10634 10634 10634 10634 10633 10633 10632 10632 10631 10631 10631 10630 10630 10630 10630 10630 10630 10630 10630 10630 10630 10630 10630 10630 10630 10630 10631 10632 10632 10633 10633 10634 10634 10635 10634 10635 10635 10635 10636 10637 10637 10638 10639 10641 10642 10643 10644 10645
10621 10622 10622 10623 10623 10623 10623 10623 10623 10625 10626 10627 10628 10628 10628 10629 10629 10629 10629 10629 10629 10629 10628 10628 10628 10628 10627 10627 10627 10627 10627 10627 10628 10627 10627 10627 10627 10627 10627 10627 10627 10628 10628 10629 10629 10629 10629 10630 10629 10628 10628 10629 10630 10630 10631 10631 10632 10633 10635 10637 10638 10639 10640
10616 10617 10618 10619 10619 10619 10619 10620 10620 10621 10622 10623 10623 10624 10624 10624 10623 10624 10624 10624 10625 10625 10625 10625 10625 10625 10625 10624 10624 10624 10624 10624 10625 10625 10625 10625 10624 10624 10624 10624 10624 10624 10624 10625 10625 10625 10625 10625 10625 10623 10623 10624 10624 10624 10625 10626 10626 10627 10628 10630 10632 10634 10634
10611 10612 10613 10614 10614 10615 10616 10616 10616 10617 10618 10618 10619 10619 10619 10619 10619 10619 10619 10620 10620 10621 10621 10621 10622 10622 10622 10622 10621 10621 10621 10621 10622 10622 10622 10622 10621 10621 10621 10621 10621 10621 10621 10621 10621 10621 10621 10621 10620 10619 10619 10619 10619 10619 10619 10620 10620 10621 10622 10624 10626 10628 10629
10606 10607 10608 10609 10610 10611 10611 10612 10612 10612 10613 10614 10614 10615 10615 10615 10615 10615 10615 10615 10616 10616 10617 10618 10618 10619 10619 10618 10618 10618 10618 10618 10619 10619 10619 10618 10618 10618 10618 10617 10617 10617 10617 10617 10618 10618 10617 10617 10616 10616 10615 10615 10614 10614 10614 10615 10615 10616 10617 10618 10620 10622 10623
10600 10601 10603 10604 10605 10605 10607 10608 10608 10607 10608 10609 10610 10610 10610 10610 10610 10611 10611 10611 10611 10611 10612 10613 10614 10615 10615 10615 10615 10615 10615 10615 10615 10615 10615 10615 10615 10615 10615 10614 10614 10614 10614 10614 10614 10614 10614 10613 10613 10612 10611 10611 10611 10610 10610 10610 10610 10611 10611 10612 10613 10615 10616
10596 10596 10597 10598 10599 10600 10601 10602 10603 10603 10602 10603 10604 10605 10605 10606 10606 10606 10607 10607 10607 10607 10607 10608 10609 10609 10610 10611 10611 10612 10612 10612 10612 10612 10612 10612 10612 10612 10611 10611 10611 10610 10610 10610 10610 10610 10610 10610 10609 10608 10608 10607 10606 10606 10606 10606 10606 10606 10606 10606 10607 10608 10610
10591 10591 10592 10592 10593 10594 10595 10596 10597 10598 10597 10597 10598 10599 10599 10600 10601 10602 10602 10602 10602 10603 10604 10604 10604 10604 10605 10605 10606 10607 10607 10607 10608 10608 10608 10608 10608 10608 10607 10607 10607 10606 10606 10606 10606 10606 10605 10605 10605 10605 10604 10603 10602 10602 10601 10601 10601 10601 10601 10601 10602 10603 10604
10585 10586 10587 10587 10588 10588 10589 10590 10591 10592 10592 10591 10591 10592 10593 10594 10595 10596 10596 10597 10598 10599 10599 10600 10600 10600 10600 10600 10600 10601 10601 10602 10602 10602 10602 10602 10602 10602 10602 10602 10602 10601 10601 10601 10601 10601 10601 10601 10600 10600 10599 10599 10598 10597 10597 10596 10596 10596 10596 10596 10596 10597 10597
10580 10581 10582 10583 10584 10584 10584 10584 10584 10585 10586 10585 10585 10585 10585 10586 10587 10588 10589 10590 10591 10593 10594 10594 10595 10595 10595 10595 10595 10596 10596 10596 10596 10596 10597 10597 10597 10597 10597 10596 10596 10595 10595 10595 10595 10595 10595 10595 10595 10595 10594 10594 10593 10593 10592 10591 10591 10590 10591 10591 10591 10591 10591
10575 10576 10577 10579 10579 10580 10579 10580 10580 10581 10581 10581 10580 10580 10580 10580 10580 10581 10582 10583 10584 10586 10587 10588 10589 10589 10590 10590 10590 10590 10590 10591 10591 10591 10591 10591 10591 10591 10590 10590 10590 10590 10589 10589 10589 10589 10589 10589 10589 10589 10589 10588 10588 10587 10587 10586 10586 10585 10585 10585 10585 10586 10586
10571 10572 10573 10573 10574 10575 10575 10576 10576 10576 10577 10576 10576 10576 10576 10576 10576 10576 10576 10577 10578 10579 10580 10581 10582 10583 10584 10584 10585 10585 10585 10585 10585 10585 10585 10585 10585 10584 10584 10584 10584 10583 10583 10583 10583 10583 10582 10582 10582 10582 10582 10582 10581 10581 10581 10580 10580 10580 10580 10579 10579 10580 10580
10566 10567 10568 10568 10568 10569 10570 10571 10571 10571 10572 10572 10572 10572 10572 10571 10571 10572 10572 10573 10573 10574 10574 10575 10576 10576 10577 10578 10578 10579 10579 10579 10579 10579 10579 10578 10578 10578 10578 10578 10578 10577 10577 10577 10576 10576 10576 10576 10575 10575 10574 10574 10574 10574 10573 10573 10573 10573 10574 10574 10574 10574 10574
10561 10562 10562 10562 10562 10563 10564 10565 10565 10566 10566 10567 10568 10568 10567 10566 10566 10566 10567 10567 10568 10569 10569 10570 10571 10571 10572 10572 10572 10572 10572 10571 10572 10572 10572 10572 10572 10572 10571 10571 10571 10571 10570 10570 10569 10569 10569 10569 10568 10568 10567 10567 10566 10566 10566 10566 10566 10566 10566 10567 10567 10568 10568
10555 10556 10556 10556 10557 10557 10558 10558 10559 10559 10560 10560 10561 10561 10561 10560 10560 10560 10560 10560 10561 10563 10563 10563 10564 10565 10565 10565 10565 10564 10564 10564 10564 10564 10564 10564 10564 10564 10564 10564 10564 10563 10563 10562 10562 10562 10562 10561 10561 10560 10559 10559 10559 10558 10558 10558 10558 10558 10559 10559 10560 10561 10561
10549 10550 10551 10551 10551 10551 10552 10552 10552 10552 10553 10553 10554 10554 10554 10553 10554 10554 10554 10553 10554 10555 10555 10555 10556 10557 10557 10557 10556 10556 10555 10555 10556 10556 10556 10556 10556 10556 10556 10556 10556 10555 10555 10554 10554 10554 10554 10554 10553 10553 10552 10552 10551 10551 10551 10551 10551 10551 10551 10552 10553 10554 10554
10542 10545 10547 10547 10545 10545 10546 10545 10545 10545 10546 10546 10546 10546 10546 10546 10546 10547 10547 10547 10547 10547 10547 10547 10548 10549 10549 10549 10548 10547 10547 10547 10547 10547 10547 10547 10547 10547 10547 10547 10547 10546 10546 10546 10547 10547 10547 10547 10547 10546 10545 10545 10545 10544 10544 10544 10544 10544 10545 10546 10547 10548 10548
10536 10539 10541 10541 10539 10539 10539 10539 10539 10539 10539 10539 10539 10539 10538 10538 10539 10539 10540 10540 10540 10540 10539 10539 10539 10540 10540 10540 10540 10539 10539 10538 10538 10538 10538 10538 10539 10539 10539 10538 10538 10538 10539 10540 10540 10540 10540 10539 10539 10539 10539 10539 10538 10538 10537 10537 10537 10537 10538 10539 10540 10541 10542
10530 10531 10533 10534 10533 10532 10533 10533 10533 10533 10532 10532 10532 10531 10530 10529 10530 10531 10532 10532 10533 10532 10531 10530 10530 10531 10531 10531 10531 10531 10531 10530 10530 10530 10530 10531 10531 10531 10530 10530 10530 10531 10532 10533 10533 10533 10532 10531 10532 10532 10532 10532 10532 10531 10531 10531 10531 10531 10532 10532 10533 10533 10534
10522 10522 10524 10528 10529 10527 10524 10525 10526 10527 10526 10526 10525 10524 10521 10521 10521 10523 10524 10524 10524 10525 10524 10523 10522 10522 10522 10523 10523 10523 10522 10522 10521 10521 10522 10523 10523 10523 10522 10523 10523 10524 10525 10525 10525 10524 10523 10524 10525 10526 10525 10525 10526 10525 10524 10524 10524 10525 10525 10525 10525 10526 10526
10515 10515 10518 10522 10523 10519 10517 10517 10518 10520 10519 10519 10519 10517 10513 10513 10514 10515 10516 10516 10516 10516 10516 10515 10514 10514 10514 10514 10514 10514 10514 10514 10514 10513 10514 10515 10515 10515 10515 10515 10517 10518 10518 10517 10517 10516 10516 10518 10519 10519 10518 10518 10518 10518 10518 10517 10517 10518 10518 10517 10518 10518 10518
10509 10510 10512 10514 10513 10510 10510 10510 10510 10512 10511 10511 10513 10511 10505 10504 10505 10507 10509 10509 10509 10509 10508 10507 10506 10506 10506 10506 10506 10506 10506 10505 10505 10505 10506 10507 10507 10507 10508 10508 10509 10510 10510 10509 10508 10508 10510 10512 10513 10512 10511 10510 10511 10511 10510 10510 10510 10510 10510 10510 10510 10510 10510
10501 10502 10503 10505 10504 10502 10502 10502 10502 10503 10502 10502 10504 10503 10498 10496 10496 10498 10500 10501 10501 10501 10501 10499 10498 10498 10498 10498 10498 10498 10497 10497 10497 10497 10497 10497 10497 10497 10498 10499 10500 10501 10501 10501 10500 10499 10501 10503 10504 10504 10504 10503 10503 10503 10503 10503 10503 10502 10502 10503 10503 10503 10502
10492 10493 10493 10494 10494 10494 10493 10492 10493 10494 10494 10493 10493 10493 10491 10489 10488 10489 10491 10492 10493 10493 10492 10491 10491 10491 10491 10491 10491 10490 10490 10490 10489 10489 10489 10490 10490 10490 10489 10489 10490 10491 10492 10492 10491 10491 10492 10493 10493 10494 10495 10495 10495 10494 10494 10494 10494 10494 10494 10495 10495 10495 10495
10484 10484 10484 10483 10483 10484 10484 10482 10483 10484 10484 10483 10482 10482 10481 10481 10480 10481 10481 10482 10483 10483 10483 10483 10483 10483 10482 10482 10482 10482 10482 10481 10481 10481 10481 10482 10482 10483 10483 10482 10482 10482 10483 10483 10482 10482 10483 10484 10484 10484 10484 10484 10484 10484 10484 10484 10484 10483 10484 10485 10486 10486 10486
10474 10474 10474 10473 10473 10474 10474 10473 10473 10473 10472 10472 10472 10471 10469 10471 10472 10471 10471 10472 10473 10473 10473 10473 10474 10474 10474 10473 10473 10473 10473 10472 10472 10473 10473 10473 10474 10474 10475 10475 10475 10475 10475 10474 10474 10473 10473 10474 10475 10475 10475 10475 10475 10475 10475 10475 10475 10474 10474 10475 10476 10476 10476
10463 10463 10464 10464 10463 10463 10464 10463 10463 10463 10462 10462 10462 10460 10458 10460 10461 10461 10461 10461 10462 10462 10462 10463 10463 10464 10463 10463 10463 10463 10463 10463 10463 10464 10464 10465 10466 10466 10467 10467 10467 10467 10467 10466 10465 10464 10464 10464 10465 10465 10466 10467 10467 10467 10467 10466 10466 10466 10465 10465 10466 10466 10466
10451 10452 10452 10453 10452 10452 10452 10452 10452 10452 10452 10452 10451 10450 10449 10449 10450 10450 10450 10450 10451 10451 10452 10452 10452 10453 10453 10453 10453 10453 10453 10453 10454 10454 10455 10456 10457 10458 10458 10458 10458 10459 10459 10459 10457 10456 10455 10455 10455 10456 10456 10457 10458 10458 10458 10458 10458 10457 10457 10456 10456 10455 10455
10439 10440 10440 10440 10440 10440 10441 10441 10441 10441 10441 10441 10441 10441 10440 10440 10440 10440 10439 10439 10440 10441 10441 10442 10442 10442 10442 10442 10442 10442 10442 10443 10444 10444 10445 10447 10448 10448 10448 10448 10448 10449 10449 10449 10449 10448 10447 10447 10447 10447 10448 10448 10449 10449 10449 10449 10448 10448 10448 10447 10446 10446 10445
10428 10428 10429 10429 10429 10429 10429 10429 10429 10429 10430 10429 10430 10430 10430 10430 10430 10430 10429 10429 10430 10431 10431 10431 10431 10431 10431 10431 10431 10431 10432 10432 10433 10434 10435 10436 10437 10438 10438 10438 10438 10438 10439 10439 10439 10439 10438 10438 10439 10440 10440 10440 10440 10440 10440 10440 10439 10439 10438 10438 10437 10436 10436
10418 10418 10418 10419 10419 10418 10418 10418 10418 10418 10418 10419 10420 10421 10420 10420 10420 10420 10420 10420 10420 10421 10421 10421 10421 10421 10421 10421 10421 10421 10421 10422 10423 10423 10424 10425 10426 10427 10428 10428 10428 10428 10428 10428 10428 10428 10428 10428 10429 10430 10430 10430 10431 10430 10430 10430 10429 10429 10429 10428 10428 10427 10426
10407 10408 10408 10409 10409 10408 10408 10408 10408 10407 10407 10408 10411 10412 10411 10410 10411 10411 10411 10411 10411 10411 10412 10412 10412 10411 10412 10412 10411 10411 10412 10413 10413 10413 10414 10415 10416 10417 10417 10417 10417 10417 10418 10418 10418 10418 10418 10418 10418 10418 10419 10420 10420 10419 10419 10419 10419 10419 10419 10419 10418 10418 10417
10396 10397 10397 10398 10399 10398 10398 10397 10397 10397 10396 10398 10400 10401 10401 10402 10402 10402 10402 10402 10402 10402 10402 10402 10402 10403 10403 10403 10403 10402 10402 10403 10404 10404 10404 10405 10406 10407 10408 10407 10408 10408 10408 10408 10409 10409 10409 10408 10408 10408 10408 10409 10409 10409 10410 10410 10409 10409 10409 10409 10409 10409 10408
10384 10384 10385 10386 10387 10387 10387 10387 10386 10386 10386 10386 10388 10390 10391 10392 10393 10394 10394 10393 10393 10393 10393 10393 10393 10394 10394 10395 10394 10394 10394 10394 10395 10395 10396 10397 10397 10398 10399 10399 10398 10399 10399 10399 10399 10400 10400 10399 10399 10398 10398 10398 10399 10399 10400 10400 10400 10399 10399 10399 10399 10399 10399
10372 10372 10372 10373 10374 10375 10376 10376 10375 10375 10375 10375 10376 10378 10379 10380 10382 10384 10384 10384 10384 10384 10384 10384 10384 10385 10386 10386 10386 10386 10386 10386 10387 10387 10387 10388 10389 10389 10389 10389 10389 10389 10389 10390 10391 10391 10391 10391 10390 10390 10389 10389 10390 10390 10390 10390 10390 10389 10389 10389 10389 10388 10388
10360 10360 10360 10360 10360 10361 10363 10363 10363 10363 10364 10363 10364 10366 10367 10368 10369 10371 10372 10373 10374 10374 10374 10375 10375 10376 10377 10377 10377 10377 10377 10378 10378 10378 10378 10378 10379 10379 10380 10380 10380 10380 10380 10381 10382 10382 10382 10382 10382 10382 10381 10381 10381 10381 10380 10380 10380 10380 10379 10379 10379 10378 10378